This is the latest recevied weather packets stored in our database for station/object N8WEL. If no packets are shown the sender has not sent any weather packets the latest 10 day(s).
| Time | Temp. | Humidity | Pressure | Rain* | Wind** | Luminosity | Snow |
|---|---|---|---|---|---|---|---|
| 1778003191 | 18.89° C | 67% | 1007.4 hPa | 0 mm | - | - | - |
| 1778002912 | 19.44° C | 68% | 1007.6 hPa | 0 mm | - | - | - |
| 1778002591 | 19.44° C | 67% | 1007.6 hPa | 0 mm | - | - | - |
| 1778002292 | 19.44° C | 65% | 1007.6 hPa | 0 mm | - | - | - |
| 1778002010 | 20° C | 67% | 1007.6 hPa | 0 mm | - | - | - |
| 1778001692 | 19.44° C | 66% | 1007.6 hPa | 0 mm | - | - | - |
| 1778001393 | 19.44° C | 66% | 1007.5 hPa | 0 mm | - | - | - |
| 1778001104 | 19.44° C | 65% | 1007.6 hPa | 0 mm | - | - | - |
| 1778000818 | 19.44° C | 66% | 1007.7 hPa | 0 mm | - | - | - |
| 1778000517 | 20° C | 65% | 1007.7 hPa | 0 mm | - | - | - |
| 1778000191 | 20° C | 64% | 1007.8 hPa | 0 mm | - | - | - |
| 1777999778 | 20° C | 65% | 1007.9 hPa | 0 mm | - | - | - |
| 1777999480 | 20° C | 65% | 1007.8 hPa | 0 mm | - | - | - |
| 1777999156 | 20.56° C | 63% | 1007.9 hPa | 0 mm | - | - | - |
| 1777998856 | 20.56° C | 64% | 1007.8 hPa | 0 mm | - | - | - |
| 1777998256 | 20.56° C | 65% | 1007.8 hPa | 0 mm | - | - | - |
| 1777997956 | 20.56° C | 65% | 1007.7 hPa | 0 mm | - | - | - |
| 1777997659 | 20.56° C | 64% | 1007.8 hPa | 0 mm | - | - | - |
| 1777997356 | 20.56° C | 64% | 1007.8 hPa | 0 mm | - | - | - |
| 1777997056 | 20.56° C | 63% | 1007.7 hPa | 0 mm | - | - | - |
| 1777996757 | 20.56° C | 64% | 1007.7 hPa | 0 mm | - | - | - |
| 1777996421 | 20.56° C | 66% | 1007.8 hPa | 0 mm | - | - | - |
| 1777996121 | 20.56° C | 65% | 1007.8 hPa | 0 mm | - | - | - |
| 1777995821 | 20.56° C | 65% | 1007.8 hPa | 0 mm | - | - | - |
| 1777995259 | 20° C | 69% | 1007.8 hPa | 0 mm | - | - | - |
* Rain latest hour (hover to see other rain measurements)
** Current wind speed in m/s (hover to see current wind gust speed)